Location: New Greens
(51.7702°N, 0.3379°W)
Time: 06:06:49
(UTC+00:00)

N. Korean satellite - Visible Passes

Search period start: 21 November 2018 00:00
Search period end: 01 December 2018 00:00
Orbit: 456 x 511 km, 97.2° (Epoch: 20 November)

Date Brightness Start Highest point End Pass type
(mag) Time Alt. Az. Time Alt. Az. Time Alt. Az.
21 Nov 7.9 06:07:25 10° NNE 06:10:44 41° E 06:14:00 10° S visible
21 Nov 7.0 16:48:22 10° SE 16:51:41 37° ENE 16:54:59 10° N visible
21 Nov 9.4 18:22:38 10° SW 18:25:17 20° W 18:27:56 10° NW visible
22 Nov 9.2 05:43:17 10° NE 05:46:05 22° E 05:48:51 10° SSE visible
22 Nov 8.3 17:57:20 10° SSW 18:00:37 35° W 18:03:53 10° NNW visible
23 Nov 9.9 05:19:43 10° ENE 05:21:20 13° E 05:22:57 10° ESE visible
23 Nov 6.5 06:51:46 10° N 06:55:10 57° WNW 06:58:33 10° SSW visible
23 Nov 6.9 17:32:31 10° S 17:36:02 67° WSW 17:39:32 10° NNW visible
24 Nov 6.7 06:27:12 10° NNE 06:30:39 73° ESE 06:34:05 10° S visible
24 Nov 6.4 17:08:01 10° SSE 17:11:31 63° ENE 17:14:59 10° N visible
24 Nov 10.0 18:43:53 10° WSW 18:45:22 12° W 18:46:51 10° WNW visible
25 Nov 8.2 06:02:49 10° NNE 06:06:04 37° E 06:09:17 10° SSE visible
25 Nov 7.1 16:43:52 10° SE 16:47:04 33° ENE 16:50:15 10° N visible
25 Nov 9.2 18:17:51 10° SW 18:20:37 21° W 18:23:23 10° NW visible
26 Nov 9.3 05:38:43 10° NE 05:41:23 20° E 05:44:03 10° SE visible
26 Nov 8.0 17:52:38 10° SSW 17:55:57 38° W 17:59:15 10° NNW visible
27 Nov 10.0 05:15:23 10° ENE 05:16:37 12° E 05:17:52 10° ESE visible
27 Nov 6.4 06:47:04 10° N 06:50:30 64° WNW 06:53:55 10° SSW visible
27 Nov 6.7 17:27:51 10° S 17:31:21 75° WSW 17:34:51 10° NNW visible
28 Nov 6.9 06:22:31 10° NNE 06:25:58 65° ESE 06:29:25 10° S visible
28 Nov 6.5 17:03:24 10° SSE 17:06:51 56° ENE 17:10:15 10° N visible
28 Nov 9.9 18:38:52 10° WSW 18:40:38 13° W 18:42:25 10° WNW visible
29 Nov 8.4 05:58:10 10° NNE 06:01:21 33° E 06:04:32 10° SSE visible
29 Nov 7.3 16:39:19 10° SE 16:42:24 30° ENE 16:45:28 10° N visible
29 Nov 9.0 18:13:02 10° SSW 18:15:54 23° W 18:18:45 10° NW visible
30 Nov 9.5 05:34:08 10° NE 05:36:39 19° E 05:39:10 10° SE visible
30 Nov 7.0 07:07:02 10° N 07:10:16 38° WNW 07:13:31 10° SW visible
30 Nov 7.8 17:47:53 10° S 17:51:14 43° W 17:54:34 10° NNW visible
